Location: Augirein
(42.9320°N, 0.9181°E)
Time: 02:55:41
(UTC+00:00)

Cosmos 1833 Rocket - Pass Details

Date: 20 June 2021
Orbit: 833 x 839 km, 71.0° (Epoch: 04 August)

Event Time Altitude Azimuth Distance (km) Brightness Sun altitude
Exits shadow 02:40:25 - 168° (SSE) 2,828 5.1 -13.8°
Reaches altitude 10° 02:41:34 10° 163° (SSE) 2,444 4.8 -13.7°
Maximum altitude 02:46:23 30° 104° (ESE) 1,451 4.2 -13.1°
Drops below altitude 10° 02:51:14 10° 44° (NE) 2,462 6.6 -12.6°
Sets 02:53:56 0° 34° (NE) 3,401 7.9 -12.3°
